Location: Carthage
(33.8834°N, 106.6595°W)
Time: 10:43:26
(UTC+00:00)

Cosmos 1346 Rocket - Pass Details

Date: 13 February 2026
Orbit: 476 x 485 km, 81.2° (Epoch: 11 March)

Event Time Altitude Azimuth Distance (km) Brightness Sun altitude
Rises 13:06:13 0° 360° (N) 2,557 6.1 -10.3°
Reaches altitude 10° 13:08:24 10° 7° (N) 1,674 5.3 -9.9°
Maximum altitude 13:11:54 42° 79° (E) 708 4.0 -9.2°
Drops below altitude 10° 13:15:23 10° 152° (SSE) 1,666 5.9 -8.4°
Sets 13:17:33 0° 159° (SSE) 2,543 6.7 -8.0°
